Погода в Ермаках

Россия / Тюменская область     57°15′18″N   70°56′14″E
темп.,
°C
ветер,
м/с
пор.,
м/с
влажн.,
%
обл.,
%
осадки,
мм/ч
давл.,
гПа
погр.,
м
4 марта, чт
чт423:00−8ююз41194100 0.4 1004448
02:00−7ююз31094100 0.1 1002369
05:00−7ю3995100 0.2 1002313
08:00−5ююз41095100 0.4 1000551
11:00−3ююз489399 0.7 999625
14:00−2ююз4793100 0.3 998636
17:00−2ююз2597100 0.6 996339
20:00−4ююз2497100 0.1 995103
5 марта, пт
пт523:00−3зюз3996100 0.4 996430
02:00−7юз499590 0.0 997291
05:00−8юз5119494 0.1 999449
08:00−12ююз4109371 0.0 1001265
11:00−9ююз6129486 0.4 1000647
14:00−4ююз61291100 0.9 9981013
17:00−1юз71495100 1.7 9981367
20:00−4юз4138673 0.4 998563
6 марта, сб
сб623:00−6юз4118683 0.4 1000326
02:00−6юз3108886 0.0 1000309
05:00−7юз3109190 0.0 1001278
08:00−8зюз4109194 0.0 1001356
11:00−7зюз599277 0.0 1002508
14:00−7зюз61088100 0.1 1004824
17:00−8зюз51083100 0.1 10061012
20:00−11юз4119377 0.0 1008342
7 марта, вс
вс723:00−13юз499578 0.0 1009253
02:00−15юз379673 0.0 1010147
05:00−16ююз369763 0.0 1010132
08:00−15ю2496100 0.0 1009121
11:00−9ююв1391100 0.1 1008322
14:00−6в1292100 0.3 1005386
17:00−7ссв2495100 0.7 1004397
20:00−10ссз2496100 0.3 1005110
8 марта, пн
пн823:00−12сз249799 0.3 100783
02:00−17зсз239764 0.0 100932
05:00−19зсз229732 0.0 101120
08:00−19з22960 0.0 101259
11:00−12з239116 0.0 1012320
14:00−10юз248699 0.0 1012640
17:00−11ююз269299 0.1 1013343
20:00−12ю3995100 0.0 1013274